Flag for Germany Weather past 2 weeks in Trier, Rhineland-Palatinate, Germany

Now
60 °F

Partly sunny.


Feels Like: 59 °F
Forecast: 39 / 63 °F
Wind: 6 mph from Northeast

Location: Trier-Petrisberg

Current Time: Apr 19, 2015 at 3:14:07 PM

Latest Report: Apr 19, 2015 at 2:00 PM


Visibility: 28 mi

Pressure: 30.10 "Hg

Humidity: 33%

Dew point: 31 °F

Location of TrierLocation

Historic Weather in Trier — Graph

°F

Trier temperature yesterday

Maximum temperature yesterday: 58 °F (at 5:00 PM)
Minimum temperature yesterday: 38 °F (at 7:00 AM)
Average temperature yesterday: 48 °F

Past Weeks' High & Low Weather Summary

 TemperatureHumidityPressure
High77 °F (Apr 15, 4:00 PM)100% (Apr 7, 8:00 AM)30.68 "Hg (Apr 7, 8:00 AM)
Low29 °F (Apr 5, 7:00 AM)24% (Apr 10, 3:00 PM)29.85 "Hg (Apr 16, 6:00 PM)
Average50 °F64%30.26 "Hg
* Reported Apr 4 2:00 PM — Apr 19 2:00 PM, Trier, Weather by CustomWeather, © 2015

Note: Actual official high and low records may vary slightly from our data, if they occured in-between our weather recording intervals... More about our weather records

Advertising

Trier weather history for previous 24 hours

 ConditionsComfort  
Time TempWeatherWind HumidityBarometerVisibility
2:00 PM
Sun, Apr 19
60 °FPartly sunny.6 mph33%30.10 "Hg28 mi
1:00 PM58 °FPartly sunny.6 mph31%30.11 "Hg28 mi
12:00 PM56 °FPartly sunny.6 mph34%30.12 "Hg25 mi
11:00 AM51 °FScattered clouds.5 mph51%30.14 "Hg25 mi
10:00 AM46 °FScattered clouds.3 mph58%30.16 "Hg25 mi
9:00 AM41 °FPassing clouds.3 mph66%30.17 "Hg25 mi
8:00 AM36 °FPassing clouds.2 mph81%30.18 "Hg25 mi
7:00 AM34 °FPassing clouds.2 mph84%30.19 "Hg25 mi
6:00 AM35 °FClear.6 mph77%30.18 "Hg25 mi
5:00 AM37 °FClear.5 mph75%30.19 "Hg28 mi
4:00 AM38 °FClear.1 mph73%30.21 "Hg28 mi
3:00 AM39 °FClear.5 mph70%30.23 "Hg31 mi
2:00 AM41 °FClear.5 mph63%30.24 "Hg31 mi
1:00 AM43 °FClear.5 mph60%30.25 "Hg34 mi
12:00 AM45 °FClear.5 mph55%30.25 "Hg34 mi
11:00 PM
Sat, Apr 18
45 °FClear.1 mph54%30.25 "Hg34 mi
10:00 PM47 °FClear.2 mph51%30.25 "Hg43 mi
9:00 PM50 °FClear.5 mph42%30.23 "Hg31 mi
8:00 PM54 °FSunny.6 mph36%30.22 "Hg31 mi
7:00 PM56 °FPassing clouds.6 mph34%30.21 "Hg31 mi
6:00 PM57 °FPassing clouds.5 mph34%30.21 "Hg31 mi
5:00 PM58 °FPassing clouds.6 mph33%30.22 "Hg31 mi
4:00 PM56 °FPassing clouds.7 mph31%30.24 "Hg31 mi
3:00 PM55 °FPassing clouds.7 mph35%30.25 "Hg31 mi
Weather by CustomWeather, © 2015

See weather overviewHow to use our weather pages